Orbital Elements at Epoch 2459000.5 (2020-May-31.0) TDB
Reference: JPL 10 (heliocentric ecliptic J2000)
Element | Value | Uncertainty (1-sigma) | Units |
e | .1425822418070519 | 1.1334e-07 | |
a | 2.25892543136424 | 2.4983e-08 | au |
q | 1.936842779285364 | 2.5787e-07 | au |
i | 3.135124754748109 | 8.5106e-06 | deg |
node | 79.35005855247593 | 0.00018663 | deg |
peri | 343.7291760484051 | 0.00018969 | deg |
M | 321.5299188301412 | 3.7956e-05 | deg |
tp | 2459133.017084051145 (2020-Oct-10.51708405) | 0.0001319 | TDB |
period | 1240.08447104057 3.40 | 2.0573e-05 5.633e-08 | d yr |
n | .2903028046935541 | 4.8161e-09 | deg/d |
Q | 2.581008083443114 | 2.8546e-08 | au |
|
| | Orbit Determination Parameters
Additional Information
|